Погода в Боготоле

Погода в Боготоле : погода сейчас, прогноз погоды и архив. Всё, что Вы хотите узнать о погоде в Боготоле!

Хотите узнать прогноз погоды в Боготоле? Тогда Вам сюда: Погода в Боготоле

Поиск расширенной информации на нашем сайте:

Полезная информация: Что такое внутренний подтягивающий резистор.

Другие новости

Новости СМИ2

Главная страница сайта

Новости сайта

03.07.2017

Напоминаем, что на нашем специализированном сайте Метеоцентр.Азия вы можете получить высокодетализированные автоматические прогнозы погоды по пунктам России, СНГ и мира в авиационном формате (включающие направление и скорость ветра, видимость, явления погоды, количество и форму облачности, нижнюю и верхнюю границу облачности).

Рекомендуем: автополив газона

Погода в Боготоле - сегодня

Время (UTC), дата Ветер
(°,м/с) 
Видим.   Явления Облачность Т
(°С)
Тd
(°С)
f(%) Тe
(°С)
Pmin
(гПа)
dP
(гПа)
Po
(мм)
O2
(г/м3)
Тmin Tmax R s Состояние
почвы
09 16.04.18 230 (ЮЗ) 3{12}  20000 м    8/6 2000 м средняя, верхняя 
[Ac trans|Ci fib]
+8.5 -3.9 41 +8  1003.7  -1.5  727  284           
12 16.04.18 210 (ЮЗ) 20000 м    8/8 2000 м средняя 
[Ac trans]
+8.5 -4.3 40 +9  1002.3  -1.3  726  284    +8.6       
15 16.04.18 210 (ЮЗ) 20000 м    10/5 600 м кучево-дожд., средняя 
[Cb cap|As op]
+7.1 -5.9 39 +6  1001.8  -0.7  725  285           
00 17.04.18 230 (ЮЗ) 5-12{12}  10 км  слаб. ливневой дождь  9/9 600 м кучево-дожд. 
[Cb cap]
+2.5 -1.5 75 1002.3  0.7  725  290  +2.5    0.0     
12 17.04.18 270 (З) 2{13}  20000 м  в посл. час ливневой снег  8/5 600 м кучево-дожд., верхняя 
[Cb cap|Ci fib]
-1.6 -1.7 99 -3  1009.9  1.5  730  296    +3.9     
15 17.04.18 240 (ЮЗ) 4000 м  слаб. ливневой снег  8/8 600 м кучево-дожд. 
[Cb cap]
-3 -3.9 94 -4  1012.4  2.2  732  299           
18 17.04.18 230 (ЮЗ) 10 км  дымка{ливн. осадки}  ясно 
-4.8 -6.3 89 -6  1014.3  1.6  733  301           
21 17.04.18 260 (З) 10 км  дымка  8/8 600 м кучево-дожд. 
[Cb cap]
-4 -7.1 79 -5  1015.5  1.2  734  301           
00 18.04.18 280 (З) 20000 м  {ливн. осадки}  8/4 600 м кучево-дожд., средняя 
[Cb cap|Ac trans]
-5.7 -9.4 75 -7  1017.8  736  304  -6.6    0.3  равномерный
сухой снег
100% 
03 18.04.18 280 (З) 20000 м    8/6 600 м кучево-дожд., средняя 
[Cb cap|Ac trans]
-3.4 -11.6 53 -3  1019.6  737  302           
06 18.04.18 260 (З) 20000 м  в посл. час ливневой снег  9/6 600 м кучево-дожд., средняя 
[Cb cap|Ac trans]
-3 -11.7 51 -5  1020.6  738  302           
09 18.04.18 290 (З) 20000 м  {ливн. осадки}  8/8 1000 м 
[Sc]
-1.8 -12 46 -4  1020.8  0.4  738  300           
12 18.04.18 260 (З) 20000 м  {ливн. осадки}  8/8 1000 м 
[Sc]
-2.6 -12.7 46 -5  1021  0.1  738  301    -1.6  0.0     
15 18.04.18 300 (СЗ) 20000 м    3/3 1000 м 
[Sc]
-5 -12.3 57 -5  1021.9  0.5  739  304           
18 18.04.18 270 (З) 20000 м    8/8 2000 м средняя 
[Ac trans]
-5.8 -11.1 66 -5  1022.9  0.9  739  305           
21 18.04.18 210 (ЮЗ) 20000 м    10/0 средняя 
[As op]
-5.9 -10 73 -6  1022.9  739  305           
00 19.04.18 180 (Ю) 20000 м    9/9 1000 м 
[Sc]
-5.2 -8.9 75 -5  1022.3  0.3  739  305  -6.4      <0.5  сухой снег
50-90% 
03 19.04.18 190 (Ю) 20000 м    9/5 2000 м средняя, верхняя 
[Ac trans|Ci fib]
-1.1 -10.6 48 -3  1022.4  0.1  739  300           
06 19.04.18 240 (ЮЗ) 20000 м    8/6 600 м кучево-дожд., средняя 
[Cb cap|Ac trans]
-0.1 -13.2 37 -2  1021.3  -0.9  739  299           
09 19.04.18 230 (ЮЗ) 20000 м    8/5 1000 м верхняя 
[Cu med, cong|Ci fib]
+2 -13.4 31 +1  1019.6  -1.4  738  296           
12 19.04.18 210 (ЮЗ) 20000 м    3/3 1000 м 
[Cu med, cong]
+2 -13.5 31 +1  1019  -0.5  737  296    +2.9       
15 19.04.18 160 (Ю) 20000 м    ясно 
-2.8 -12.7 46 -2  1019.3  -0.3  737  301           
18 19.04.18 тихо ()   20000 м    ясно 
-3.7 -11.5 55 -4  1019.2  -0.3  737  302           
21 19.04.18 тихо ()   20000 м    ясно 
-4.9 -10.4 65 -5  1019.6  0.2  737  303           
00 20.04.18 180 (Ю) 20000 м    ясно 
-3.5 -9.5 63 -3  1020.6  1.2  738  302  -5.6        замёрзшая 
Время (UTC), дата Ветер
(°,м/с) 
Видим.   Явления Облачность Т
(°С)
Тd
(°С)
f(%) Тe
(°С)
Pmin
(гПа)
dP
(гПа)
Po
(мм)
O2
(г/м3)
Тmin Tmax R s Состояние
почвы

Для получения пояснительной информации подведите курсор к названию столбца.

ПОГОДА в Боготоле - архив

Всё, что Вы хотите узнать о погоде в Боготоле - удобно и подробно!

Выберите нужную дату (начиная с 1 января 2015* года) и нажмите кнопку "Найти".
Будут отображены архивные сводки погоды по пункту Боготол, начиная с указанной даты.


Отображать данные в формате CSV (для использования в таблицах Excel)


Внимание! Наш архив погоды предназначен исключительно для личного некоммерческого использования в познавательных целях. Если Вам необходимы официальные справки о состоянии погоды (для производственных, юридических, коммерческих и т.п. целей), обращайтесь в органы Росгидромета.

*Примечание: данная дата относится к архиву по метеостанциям СССР (Россия, СНГ, Балтия).
Архив по метеостанциям Зарубежной Европы и Азии (кроме Китая) хранится 10 дней, по другим регионам земного шара (Китай, Африка, Америка, Австралия, Океания) - 1 день.

Боготол - район местоположения метеостанции


Название, широта, долгота, высота метеостанции:
Боготол 56.2°ш. 89.6°д. 291 м над ур. моря [Российская Федерация]

Дополнительная информация

В oтличие oт бoльшинства пoгoдных сайтoв мы публикуем пoдрoбную метеoинфoрмацию в детальнoм прoфессиoнальнoм фoрмате.

Характеристики температуры и влажнoсти вoздуха измеряются на высoте 2 м в тени вдали oт зданий и деревьев.
Скoрoсть ветра измеряется на высoте 10 м (на урoвне рoста челoвека скoрoсть ветра ниже в 1.5-2 раза). Если метеoстанция нахoдится в гoрoде или в лесу, тo скoрoсть ветра занижена на 2-4 м/с пo сравнению с oткрытым местoм. Скoрoсть ветра над акватoриями крупных рек и oзёр, а также на вершинах хoлмoв на 2-5 м/с выше, чем в oбычных услoвиях.
Атмoсфернoе давление в разных тoчках местнoсти мoжет значительнo oтличаться oт давления на метеoстанции, в зависимoсти oт услoвий рельефа (при пoдъёме на 10 м давление пoнижается примернo на 1 мм рт.ст.).